AirNav   Everest Fuels
 
 1178 users online  

7V8 Julesburg Municipal Airport
Julesburg, Colorado, USA

GOING TO JULESBURG?


FAA INFORMATION EFFECTIVE 01 DECEMBER 2022

Location

FAA Identifier: 7V8
Lat/Long: 40-58-12.9300N 102-18-54.9850W
40-58.215500N 102-18.916417W
40.9702583,-102.3152736
(estimated)
Elevation: 3495 ft. / 1065 m (estimated)
Variation: 10E (1985)
From city: 3 miles SW of JULESBURG, CO
Time zone: UTC -7 (UTC -6 during Daylight Saving Time)
Zip code: 80737

Airport Operations

Airport use: Open to the public
Activation date: 02/1945
Control tower: no
ARTCC: DENVER CENTER
FSS: DENVER FLIGHT SERVICE STATION
NOTAMs facility: DEN (NOTAM-D service available)
Attendance: UNATNDD
FOR SVC & ASSISTANCE CALL SHERIFFS OFFICE 970-474-3355.
Wind indicator: lighted
Segmented circle: no
Lights: MIRL RY 13/31 PRESET MED INTST DUSK-DAWN.
Beacon: white-green (lighted land airport)
Operates sunset to sunrise.

Airport Communications

CTAF: 122.9

Nearby radio navigation aids

VOR radial/distance  VOR name  Freq  Var
SAEr243/26.0SEARLE VOR/DME110.2007E
SNYr091/31.2SIDNEY VOR/DME115.9013E

 
NDB name  Hdg/Dist  Freq  Var  ID
CHAPPELL124/9.138310ECNP -.-. -. .--.
OSHKOSH167/25.923309EOKS --- -.- ...
GRANT274/27.235909EGGF --. --. ..-.

Airport Services

Parking: tiedowns
Airframe service: NONE
Powerplant service: NONE
Bottled oxygen: NONE
Bulk oxygen: NONE

Runway Information

Runway 13/31

Dimensions: 4100 x 60 ft. / 1250 x 18 m
Surface: asphalt, in good condition
Weight bearing capacity: 
Single wheel: 12.0
Runway edge lights: medium intensity
Runway edge markings: RY 13/31 NUMBERS SMALL.
RUNWAY 13  RUNWAY 31
Latitude: 40-58.493333N40-57.937667N
Longitude: 102-19.169167W102-18.663667W
Elevation: 3489.0 ft.3492.0 ft.
Traffic pattern: leftleft
Displaced threshold: 284 ft.no
Markings: basic, in fair conditionNSTD, in good condition
Obstructions: 35 ft. tank, 604 ft. from runway, 147 ft. left of centerline, 11:1 slope to clear
RY 13 HAS +5 FT FENCE 30 FT L OF CNTRLN AT PAVEMENT END. +19 FT RD 59 FT FROM THLD OB.
17 ft. pline, 864 ft. from runway, 39:1 slope to clear
+5 FT FENCE OB OF CNTRLN 45 FT FM END OF RY.

Airport Ownership and Management from official FAA records

Ownership: Publicly-owned
Owner: CITY OF JULESBURG
100 W SECOND
JULESBURG, CO 80737
Phone 970-474-3344
Manager: ALLEN COYNE
100 W SECOND
JULESBURG, CO 80737
Phone 970-474-3344
CITY CLERKS OFC AFTER HRS PHONE 970-474-2124.

Airport Operational Statistics

Aircraft based on the field: 10
Single engine airplanes: 10
    
Aircraft operations: avg 22/month *
60% transient general aviation
40% local general aviation
* for 12-month period ending 31 December 2016

Additional Remarks

WILDLIFE ON & INVOF ARPT.
RY USED FOR DRAG RACING ON FRI-SUN FROM APR-SEP.
RY 13 HAS +4 FT FENCE 350 FT FROM DSPLCD THR; +18 FT ROAD 410 FT FROM DSPLCD THR.
3 FT RAILING 112 FT N SIDE OF RY; FULL LENGTH.
TAXIWAY CLOSED USE RUNWAY FOR BACK TAXI.
FOR CD CTC DENVER ARTCC AT 303-651-4257.

Instrument Procedures

There are no published instrument procedures at 7V8.

Some nearby airports with instrument procedures:

KCNP - Billy G Ray Field Airport (9 nm NW)
KHEQ - Holyoke Airport (24 nm S)
KOKS - Garden County Airport/King Rhiley Field (26 nm N)
KOGA - Searle Field Airport (26 nm E)
KGGF - Grant Municipal Airport (27 nm E)
 
Loc | Ops | Rwys | IFR | FBO | Links
Com | Nav | Svcs | Stats | Notes

AirBoss

 
Area around 7V8 (Julesburg Municipal Airport)
 
Road maps at: MapQuest Bing Google
 
Aerial photo
WARNING: Photo may not be current or correct
Aerial photo of 7V8 (Julesburg Municipal Airport)
Photo by Ron Lee
Photo taken 11-Dec-2004
facing north

Do you have a better or more recent aerial photo of Julesburg Municipal Airport that you would like to share? If so, please send us your photo.

 
Sectional chart

 
Airport distance calculator
Flying to Julesburg Municipal Airport? Find the distance to fly.

From to 7V8

Sunrise and sunset
Times for 01-Dec-2022
 Local
(UTC-7)
 Zulu
(UTC)
Morning civil twilight06:2513:25
Sunrise06:5613:56
Sunset16:2123:21
Evening civil twilight16:5123:51

Current date and time
Zulu (UTC)  02-Dec-2022 02:20:55
Local (UTC-7)  01-Dec-2022 19:20:55
 
METAR
KHEQ 
24nm S 
020155Z AUTO 19011KT 10SM CLR 06/M02 A2963 RMK AO2
KOGA 
24nm E 
020155Z AUTO 00000KT 10SM CLR 04/M03 A2964 RMK AO2 T00381030
KGGF 
27nm E 
020155Z AUTO 14007KT 10SM CLR 02/M05 A2964 RMK AO2
KSNY 
31nm W 
020153Z AUTO 27007KT 9SM CLR M01/M02 A2962 RMK AO2 SLP069 T10061022
KIML 
42nm SE 
020153Z AUTO 17014KT 10SM CLR 09/M04 A2965 RMK AO2 SLP064 T00891044
KSTK 
48nm SW 
020155Z AUTO 00000KT 10SM CLR 00/M02 A2963 RMK AO2
TAF
KSNY 
31nm W 
011720Z 0118/0218 22009KT P6SM FEW200 FM012300 19007KT P6SM SCT200 FM021100 26010KT P6SM SCT200 FM021500 26013G22KT P6SM FEW200 FM021600 26020G30KT P6SM FEW200 FM021700 27025G35KT P6SM FEW160
NOTAMs
Click for the latest NOTAMs
NOTAMs are issued by the DoD/FAA and will open in a separate window not controlled by AirNav.

 

 
 

Would you like to see your business listed on this page?

 If your business provides an interesting product or service to pilots, flight crews, aircraft, or users of the Julesburg Municipal Airport, you should consider listing it here.  To start the listing process, click on the button below
 
Add a business
 

Other Pages about Julesburg Municipal Airport

Update a link
 
Copyright © AirNav, LLC. All rights reserved. Privacy Policy  Contact